Clemson, SC

7:39 AM EDT on March 29, 2017 (GMT -0400)
Oconee County Regional

Weather History for KCEU - December, 2013

Change the Weather History Date:

Wednesday, December 4, 2013

  Actual Average Record
Temperature  
Mean Temperature 58 °F -  
Max Temperature 62 °F 57 °F 74 °F (1956)
Min Temperature 55 °F 33 °F 18 °F (1944)
Degree Days  
Heating Degree Days 6    
Growing Degree Days 8 (Base 50)    
Moisture  
Dew Point 55 °F    
Average Humidity 88    
Maximum Humidity 94    
Minimum Humidity 82    
Precipitation  
Precipitation 0.15 in - - ()
Sea Level Pressure  
Sea Level Pressure 30.02 in    
Wind  
Wind Speed 2 mph (NNE)    
Max Wind Speed 5 mph    
Max Gust Speed -    
Visibility 1 miles    
Events Fog , Rain    
Averages and records for this station are not official NWS values.
T = Trace of Precipitation, MM = Missing Value Source: NWS Daily Summary

Daily Weather History Graph

Daily Weather History Graph

Search for Another Location

Airport or City:

Trip Planner

Search our weather history database for the weather conditions in past years. The results will help you decide how hot, cold, wet, or windy it might be!

Date:

Astronomy

Dec. 04, 2013 Rise Set
Actual Time 7:23 AM EST 5:20 PM EST
Civil Twilight 6:55 AM EST 5:48 PM EST
Nautical Twilight 6:24 AM EST 6:19 PM EST
Astronomical Twilight 5:53 AM EST 6:50 PM EST
Moon 8:51 AM EST (12/4) 7:27 PM EST (12/4)
Length of Visible Light 10h 52m
Length of Day
9h 57m
Waxing Crescent, 4% of the Moon is Illuminated
Dec 4
Waxing Crescent
Dec 9
First Quarter
Dec 17
Full
Dec 25
Last Quarter
Jan 1
New

Hourly Weather History & Observations

Time (EST) Temp. Dew Point Humidity Pressure Visibility Wind Dir Wind Speed Gust Speed Precip Events Conditions
12:16 AM 55.4 °F 51.8 °F 88% 29.95 in 1.0 mi NNE 3.5 mph - N/A   Mist
12:30 AM 55.4 °F 51.8 °F 88% 29.95 in 0.5 mi NNE 3.5 mph - N/A Fog Fog
12:54 AM 55.0 °F 52.0 °F 89% 29.94 in 0.5 mi NNE 3.5 mph - N/A Fog Fog
1:54 AM 55.0 °F 52.0 °F 89% 29.95 in 0.5 mi NNE 3.5 mph - 0.02 in Fog , Rain Light Rain
2:22 AM 55.4 °F 51.8 °F 88% 29.96 in 0.2 mi North 4.6 mph - 0.00 in Fog Fog
2:47 AM 55.4 °F 51.8 °F 88% 29.96 in 0.5 mi NE 3.5 mph - 0.01 in Fog , Rain Light Rain
2:54 AM 55.0 °F 52.0 °F 89% 29.95 in 0.5 mi Calm Calm - 0.01 in Fog , Rain Light Rain
3:36 AM 55.4 °F 51.8 °F 88% 29.96 in 1.5 mi Calm Calm - 0.10 in Rain Rain
3:44 AM 55.4 °F 51.8 °F 88% 29.96 in 3.0 mi Calm Calm - 0.10 in Rain Light Rain
3:54 AM 55.0 °F 52.0 °F 89% 29.95 in 2.5 mi Calm Calm - 0.10 in Rain Light Rain
4:05 AM 55.4 °F 51.8 °F 88% 29.96 in 1.5 mi Calm Calm - 0.01 in Rain Light Rain
4:27 AM 55.4 °F 51.8 °F 88% 29.96 in 3.0 mi Calm Calm - 0.01 in   Overcast
4:46 AM 55.4 °F 51.8 °F 88% 29.96 in 2.0 mi Calm Calm - 0.01 in   Overcast
4:54 AM 55.0 °F 52.0 °F 89% 29.95 in 1.5 mi North 3.5 mph - 0.01 in   Overcast
5:27 AM 55.4 °F 51.8 °F 88% 29.97 in 0.8 mi Calm Calm - 0.01 in   Mist
5:54 AM 55.0 °F 52.0 °F 89% 29.97 in 0.5 mi NNW 4.6 mph - 0.01 in Fog Fog
6:18 AM 55.4 °F 51.8 °F 88% 29.99 in 1.0 mi North 3.5 mph - N/A   Mist
6:27 AM 55.4 °F 51.8 °F 88% 30.00 in 0.8 mi Calm Calm - N/A   Mist
6:54 AM 55.9 °F 52.0 °F 87% 29.99 in 0.5 mi Calm Calm - 0.00 in Fog , Rain Light Rain
7:39 AM 55.4 °F 51.8 °F 88% 30.01 in 0.2 mi NNE 3.5 mph - 0.00 in Fog Fog
7:54 AM 55.9 °F 52.0 °F 87% 30.00 in 0.2 mi Calm Calm - 0.00 in Fog Fog
8:54 AM 55.9 °F 53.1 °F 90% 30.02 in 0.2 mi Calm Calm - N/A Fog Fog
9:54 AM 57.0 °F 54.0 °F 89% 30.05 in 0.2 mi Calm Calm - N/A Fog Fog
10:54 AM 57.9 °F 55.0 °F 90% 30.06 in 0.2 mi NE 3.5 mph - N/A Fog Fog
11:20 AM 57.2 °F 55.4 °F 94% 30.06 in 0.8 mi Calm Calm - N/A   Mist
11:54 AM 59.0 °F 55.0 °F 87% 30.04 in 0.8 mi Calm Calm - N/A   Overcast
12:04 PM 59.0 °F 55.4 °F 88% 30.05 in 1.2 mi Calm Calm - N/A   Overcast
12:17 PM 59.0 °F 55.4 °F 88% 30.04 in 2.5 mi SE 3.5 mph - N/A   Overcast
12:32 PM 59.0 °F 55.4 °F 88% 30.03 in 1.2 mi SE 3.5 mph - N/A   Overcast
12:54 PM 59.0 °F 55.9 °F 90% 30.01 in 2.5 mi Calm Calm - N/A   Overcast
1:19 PM 60.8 °F 55.4 °F 82% 30.01 in 3.0 mi Calm Calm - N/A   Overcast
1:29 PM 60.8 °F 55.4 °F 82% 30.01 in 2.5 mi Calm Calm - N/A   Overcast
1:54 PM 61.0 °F 57.0 °F 87% 29.99 in 2.0 mi Calm Calm - N/A   Overcast
2:27 PM 62.6 °F 57.2 °F 82% 30.00 in 3.0 mi Calm Calm - N/A   Haze
2:54 PM 61.0 °F 57.0 °F 87% 30.00 in 3.0 mi West 3.5 mph - N/A   Overcast
3:02 PM 60.8 °F 57.2 °F 88% 30.01 in 2.0 mi WNW 3.5 mph - N/A   Overcast
3:12 PM 60.8 °F 57.2 °F 88% 30.01 in 1.8 mi Calm Calm - N/A   Overcast
3:33 PM 62.6 °F 57.2 °F 82% 30.00 in 2.0 mi Calm Calm - N/A   Overcast
3:54 PM 61.0 °F 57.0 °F 87% 30.00 in 2.5 mi Calm Calm - N/A   Overcast
4:45 PM 60.8 °F 57.2 °F 88% 30.03 in 1.2 mi North 3.5 mph - N/A   Overcast
4:54 PM 61.0 °F 57.0 °F 87% 30.01 in 0.8 mi North 3.5 mph - N/A   Overcast
5:05 PM 60.8 °F 57.2 °F 88% 30.03 in 1.0 mi NNE 3.5 mph - N/A   Overcast
5:51 PM 60.8 °F 57.2 °F 88% 30.03 in 0.8 mi Calm Calm - N/A   Mist
5:54 PM 60.1 °F 57.0 °F 90% 30.02 in 0.8 mi Calm Calm - N/A   Mist
6:54 PM 60.1 °F 57.0 °F 90% 30.03 in 0.5 mi Calm Calm - N/A Fog Fog
7:26 PM 60.8 °F 57.2 °F 88% 30.05 in 0.2 mi Calm Calm - N/A Fog Fog
7:36 PM 60.8 °F 57.2 °F 88% 30.05 in 0.2 mi Calm Calm - N/A Fog Fog
7:54 PM 60.1 °F 57.0 °F 90% 30.05 in 0.2 mi Calm Calm - N/A Fog Fog
8:12 PM 60.8 °F 57.2 °F 88% 30.06 in 0.5 mi Calm Calm - N/A Fog Fog
8:23 PM 60.8 °F 57.2 °F 88% 30.05 in 1.2 mi Calm Calm - N/A   Overcast
8:39 PM 60.8 °F 57.2 °F 88% 30.07 in 0.8 mi Calm Calm - N/A   Overcast
8:54 PM 60.1 °F 55.9 °F 86% 30.06 in 1.5 mi WNW 4.6 mph - N/A   Overcast
9:02 PM 60.8 °F 57.2 °F 88% 30.07 in 3.0 mi Calm Calm - N/A   Overcast
9:09 PM 60.8 °F 57.2 °F 88% 30.07 in 2.5 mi Calm Calm - N/A   Overcast
9:18 PM 60.8 °F 57.2 °F 88% 30.07 in 1.5 mi Calm Calm - N/A   Overcast
9:51 PM 60.8 °F 57.2 °F 88% 30.07 in 2.5 mi Calm Calm - N/A   Overcast
9:54 PM 60.1 °F 57.0 °F 90% 30.06 in 3.0 mi Calm Calm - N/A   Overcast
10:03 PM 60.8 °F 55.4 °F 82% 30.08 in 2.0 mi Calm Calm - N/A   Overcast
10:10 PM 60.8 °F 57.2 °F 88% 30.07 in 2.0 mi Calm Calm - N/A   Overcast
10:15 PM 60.8 °F 57.2 °F 88% 30.07 in 1.8 mi Calm Calm - N/A   Overcast
10:47 PM 60.8 °F 57.2 °F 88% 30.08 in 2.5 mi Calm Calm - N/A   Overcast
10:54 PM 61.0 °F 57.0 °F 87% 30.07 in 3.0 mi Calm Calm - N/A   Overcast
11:09 PM 60.8 °F 57.2 °F 88% 30.08 in 1.8 mi Calm Calm - N/A   Overcast
11:35 PM 60.8 °F 57.2 °F 88% 30.08 in 0.5 mi Calm Calm - N/A Fog Fog
11:52 PM 60.8 °F 57.2 °F 88% 30.07 in 0.2 mi Calm Calm - N/A Fog Fog
11:54 PM 60.1 °F 57.0 °F 90% 30.06 in 0.2 mi Calm Calm - N/A Fog Fog